Knoxville Regional Airport (TYS)

 

Airport Diagram
Current Weather/Forecast (VFR Conditions)
METAR KTYS 220553Z 21007KT 10SM OVC080 13/05 A3008 RMK AO2 SLP180 T01280050 10144 20111 58013
TAF KTYS 220532Z 2206/2306 22004KT P6SM BKN060 PROB30 2215/2216 4SM -RA OVC025 FM221600 23005KT 5SM -RA OVC030 FM221700 24006KT 4SM -RA OVC020 FM222000 VRB03KT P6SM VCSH OVC012 PROB30 2220/2222 4SM -RA OVC008 FM222200 00000KT P6SM VCSH OVC008 PROB30 2222/2301 4SM -RA BR OVC004 FM230100 00000KT 4SM BR OVC006

All Charts
General
Chart Name Download
AIRPORT DIAGRAM
TAKEOFF MINIMUMS
ALTERNATE MINIMUMS
RADAR MINIMUMS
HOT SPOT

Departures
Chart Name Download
KNOXVILLE SIX

Approaches
Chart Name Download
HI-ILS OR LOC RWY 05L
HI-ILS OR LOC RWY 23L
HI-ILS OR LOC RWY 23R
ILS OR LOC RWY 05L
ILS OR LOC RWY 23L
ILS OR LOC RWY 23R
ILS RWY 23R (SA CAT I)
ILS RWY 23R (CAT II)
RNAV (GPS) RWY 05L
RNAV (GPS) RWY 05R
RNAV (GPS) RWY 23L
RNAV (GPS) RWY 23R
HI-VOR/DME OR TACAN RWY 05L
HI-VOR/DME OR TACAN RWY 23R
VOR RWY 23L
VOR RWY 23R


Inbound Traffic (Arrivals)

No inbound traffic.


Outbound Traffic (Departures)

No outbound traffic.